MLP282 LIMC-LIRQ

Flight info

Callsign MLP282
Flight time 0h 33m
Altitude 27000
Route ROBAS DCT BEROK
Aircraft A319/M-SDE3FGHIRWY/LB1

Departure

Time 2026-04-20 17:15
Airport Milan Malpensa International Airport (LIMC)

Arrival

Time 2026-04-20 17:49
Airport Florence Airport, Peretola (LIRQ)
Time Latitude Longitude Altitude Speed Heading
2026-04-20 17:00 45.62251 8.72055 737 ft 0 kts 79°
2026-04-20 17:09 45.62239 8.72142 736 ft 16 kts 139°
2026-04-20 17:09 45.62177 8.72034 737 ft 19 kts 248°
2026-04-20 17:09 45.62083 8.71992 736 ft 17 kts 170°
2026-04-20 17:09 45.61922 8.72031 737 ft 29 kts 168°
2026-04-20 17:10 45.61721 8.72087 737 ft 28 kts 169°
2026-04-20 17:10 45.61541 8.72137 736 ft 25 kts 167°
2026-04-20 17:10 45.61374 8.72187 736 ft 24 kts 171°
2026-04-20 17:10 45.61205 8.72231 736 ft 26 kts 168°
2026-04-20 17:11 45.61018 8.72285 737 ft 28 kts 168°
2026-04-20 17:11 45.60828 8.72339 737 ft 28 kts 170°
2026-04-20 17:11 45.60651 8.72422 737 ft 27 kts 130°
2026-04-20 17:11 45.60626 8.72675 737 ft 26 kts 97°
2026-04-20 17:12 45.60604 8.72946 737 ft 28 kts 96°
2026-04-20 17:12 45.60602 8.73221 737 ft 28 kts 69°
2026-04-20 17:12 45.60764 8.73340 737 ft 27 kts 21°
2026-04-20 17:12 45.60940 8.73397 737 ft 26 kts 350°
2026-04-20 17:13 45.61119 8.73346 737 ft 26 kts 348°
2026-04-20 17:13 45.61298 8.73293 736 ft 26 kts 349°
2026-04-20 17:13 45.61478 8.73246 735 ft 26 kts 348°
2026-04-20 17:13 45.61622 8.73255 737 ft 9 kts 62°
2026-04-20 17:14 45.61628 8.73343 737 ft 10 kts 79°
2026-04-20 17:14 45.61623 8.73455 737 ft 13 kts 113°
2026-04-20 17:14 45.61585 8.73589 737 ft 18 kts 95°
2026-04-20 17:14 45.61678 8.73714 737 ft 24 kts 351°
2026-04-20 17:15 45.62050 8.73619 737 ft 91 kts 349°
2026-04-20 17:15 45.62891 8.73386 735 ft 152 kts 349°
2026-04-20 17:15 45.64057 8.73064 969 ft 179 kts 348°
2026-04-20 17:15 45.65278 8.72752 1614 ft 182 kts 352°
2026-04-20 17:16 45.66547 8.72730 2296 ft 184 kts
2026-04-20 17:16 45.67907 8.72799 2628 ft 209 kts 359°
2026-04-20 17:16 45.69449 8.72762 3001 ft 232 kts 358°
2026-04-20 17:16 45.71079 8.72692 3842 ft 236 kts 354°
2026-04-20 17:17 45.72596 8.71868 4700 ft 238 kts 317°
2026-04-20 17:17 45.73426 8.69864 5566 ft 239 kts 278°
2026-04-20 17:17 45.73335 8.67503 6514 ft 238 kts 257°
2026-04-20 17:17 45.72881 8.65220 7426 ft 240 kts 251°
2026-04-20 17:18 45.72339 8.62948 8302 ft 243 kts 251°
2026-04-20 17:18 45.71768 8.60662 9196 ft 246 kts 246°
2026-04-20 17:18 45.70842 8.58525 9822 ft 264 kts 236°
2026-04-20 17:18 45.69765 8.56266 10215 ft 286 kts 238°
2026-04-20 17:19 45.68588 8.53823 10534 ft 311 kts 232°
2026-04-20 17:19 45.66893 8.51767 11101 ft 328 kts 213°
2026-04-20 17:19 45.64784 8.50404 11873 ft 336 kts 206°
2026-04-20 17:19 45.62610 8.49129 12704 ft 340 kts 206°
2026-04-20 17:20 45.60398 8.47879 13507 ft 346 kts 202°
2026-04-20 17:20 45.57967 8.47509 14183 ft 361 kts 177°
2026-04-20 17:20 45.55558 8.48693 14851 ft 376 kts 150°
2026-04-20 17:20 45.53667 8.51293 15507 ft 385 kts 123°
2026-04-20 17:21 45.52441 8.54721 16155 ft 391 kts 113°
2026-04-20 17:21 45.51307 8.58208 16773 ft 396 kts 122°
2026-04-20 17:21 45.49542 8.61229 17408 ft 398 kts 138°
2026-04-20 17:21 45.47542 8.63975 18067 ft 402 kts 139°
2026-04-20 17:22 45.45511 8.66748 18634 ft 407 kts 139°
2026-04-20 17:22 45.43461 8.69554 19199 ft 411 kts 139°
2026-04-20 17:22 45.41396 8.72394 19781 ft 414 kts 139°
2026-04-20 17:22 45.39314 8.75265 20368 ft 418 kts 139°
2026-04-20 17:23 45.37222 8.78152 20945 ft 422 kts 139°
2026-04-20 17:23 45.35104 8.81073 21521 ft 426 kts 139°
2026-04-20 17:23 45.32967 8.84023 22092 ft 430 kts 139°
2026-04-20 17:23 45.30813 8.86993 22660 ft 433 kts 139°
2026-04-20 17:24 45.28639 8.89991 23227 ft 437 kts 139°
2026-04-20 17:24 45.26445 8.93015 23725 ft 441 kts 139°
2026-04-20 17:24 45.24237 8.96054 24175 ft 444 kts 139°
2026-04-20 17:24 45.22001 8.99113 24611 ft 447 kts 139°
2026-04-20 17:25 45.19752 9.02183 25036 ft 451 kts 139°
2026-04-20 17:25 45.17481 9.05274 25472 ft 454 kts 139°
2026-04-20 17:25 45.15194 9.08381 25907 ft 457 kts 140°
2026-04-20 17:25 45.12895 9.11507 26340 ft 459 kts 140°
2026-04-20 17:26 45.10582 9.14658 26742 ft 462 kts 140°
2026-04-20 17:26 45.08295 9.17769 26864 ft 460 kts 140°
2026-04-20 17:26 45.05985 9.20913 26889 ft 451 kts 140°
2026-04-20 17:26 45.03725 9.23971 26887 ft 465 kts 140°
2026-04-20 17:27 45.01348 9.27179 26884 ft 479 kts 140°
2026-04-20 17:27 44.98911 9.30467 26882 ft 491 kts 139°
2026-04-20 17:27 44.96415 9.33838 26885 ft 501 kts 139°
2026-04-20 17:27 44.93872 9.37281 26880 ft 511 kts 139°
2026-04-20 17:28 44.91282 9.40777 26874 ft 519 kts 139°
2026-04-20 17:28 44.88656 9.44292 26874 ft 520 kts 140°
2026-04-20 17:28 44.86004 9.47768 26870 ft 521 kts 140°
2026-04-20 17:28 44.83326 9.51223 26872 ft 522 kts 141°
2026-04-20 17:29 44.80640 9.54653 26878 ft 521 kts 141°
2026-04-20 17:29 44.77948 9.58081 26858 ft 521 kts 141°
2026-04-20 17:29 44.75252 9.61521 26875 ft 522 kts 141°
2026-04-20 17:29 44.72566 9.64959 26876 ft 521 kts 141°
2026-04-20 17:30 44.69891 9.68395 26876 ft 516 kts 141°
2026-04-20 17:30 44.67309 9.71724 26883 ft 493 kts 141°
2026-04-20 17:30 44.64850 9.74895 26838 ft 466 kts 141°
2026-04-20 17:30 44.62501 9.77918 26392 ft 453 kts 141°
2026-04-20 17:31 44.60188 9.80877 25907 ft 448 kts 141°
2026-04-20 17:31 44.57886 9.83803 25418 ft 444 kts 141°
2026-04-20 17:31 44.55601 9.86699 24900 ft 442 kts 141°
2026-04-20 17:31 44.53330 9.89576 24379 ft 440 kts 141°
2026-04-20 17:32 44.51073 9.92438 23959 ft 435 kts 141°
2026-04-20 17:32 44.48826 9.95290 23408 ft 434 kts 141°
2026-04-20 17:32 44.46612 9.98102 22812 ft 427 kts 141°
2026-04-20 17:32 44.44417 10.00887 22218 ft 422 kts 141°
2026-04-20 17:33 44.42259 10.03625 21666 ft 416 kts 141°
2026-04-20 17:33 44.40156 10.06292 21172 ft 410 kts 141°
2026-04-20 17:33 44.38060 10.08944 20670 ft 403 kts 141°
2026-04-20 17:33 44.35991 10.11560 20170 ft 397 kts 141°
2026-04-20 17:34 44.33956 10.14125 19712 ft 392 kts 141°
2026-04-20 17:34 44.31942 10.16650 19243 ft 387 kts 141°
2026-04-20 17:34 44.29938 10.19158 18771 ft 387 kts 141°
2026-04-20 17:34 44.27934 10.21672 18296 ft 387 kts 141°
2026-04-20 17:35 44.25933 10.24186 17769 ft 385 kts 141°
2026-04-20 17:35 44.23958 10.26668 17311 ft 380 kts 141°
2026-04-20 17:35 44.22006 10.29123 16873 ft 375 kts 141°
2026-04-20 17:35 44.20080 10.31543 16456 ft 371 kts 141°
2026-04-20 17:36 44.18169 10.33940 16010 ft 368 kts 141°
2026-04-20 17:36 44.16275 10.36312 15579 ft 365 kts 141°
2026-04-20 17:36 44.14391 10.38667 15155 ft 362 kts 140°
2026-04-20 17:36 44.12524 10.40995 14731 ft 358 kts 141°
2026-04-20 17:37 44.10676 10.43298 14324 ft 355 kts 140°
2026-04-20 17:37 44.08845 10.45580 13905 ft 352 kts 140°
2026-04-20 17:37 44.07027 10.47840 13449 ft 349 kts 140°
2026-04-20 17:37 44.05230 10.50071 13020 ft 344 kts 140°
2026-04-20 17:38 44.04052 10.51536 12746 ft 341 kts 140°
2026-04-20 17:38 44.02287 10.53728 12323 ft 338 kts 140°
2026-04-20 17:38 44.00546 10.55890 11908 ft 334 kts 140°
2026-04-20 17:38 43.98820 10.58030 11520 ft 330 kts 140°
2026-04-20 17:39 43.96602 10.60785 11202 ft 318 kts 141°
2026-04-20 17:39 43.95492 10.62160 10916 ft 316 kts 141°
2026-04-20 17:39 43.93854 10.64183 10470 ft 313 kts 141°
2026-04-20 17:39 43.92231 10.66182 9958 ft 311 kts 141°
2026-04-20 17:40 43.90629 10.68155 9416 ft 305 kts 141°
2026-04-20 17:40 43.89069 10.70083 8978 ft 296 kts 141°
2026-04-20 17:40 43.87568 10.71942 8566 ft 293 kts 141°
2026-04-20 17:40 43.86043 10.73823 8142 ft 293 kts 141°
2026-04-20 17:41 43.84519 10.75702 7725 ft 293 kts 141°
2026-04-20 17:41 43.82997 10.77576 7290 ft 293 kts 142°
2026-04-20 17:41 43.81470 10.79453 6859 ft 293 kts 142°
2026-04-20 17:41 43.79940 10.81328 6406 ft 294 kts 142°
2026-04-20 17:42 43.78413 10.83202 6023 ft 291 kts 142°
2026-04-20 17:42 43.76897 10.85065 5600 ft 290 kts 141°
2026-04-20 17:42 43.75402 10.86902 5193 ft 288 kts 141°
2026-04-20 17:42 43.73911 10.88731 4887 ft 282 kts 141°
2026-04-20 17:43 43.72473 10.90491 4733 ft 270 kts 142°
2026-04-20 17:43 43.71098 10.92171 4610 ft 258 kts 142°
2026-04-20 17:43 43.69828 10.93879 4252 ft 257 kts 131°
2026-04-20 17:43 43.68980 10.96012 3971 ft 248 kts 110°
2026-04-20 17:44 43.68676 10.98286 3812 ft 236 kts 92°
2026-04-20 17:44 43.68851 11.00479 3610 ft 225 kts 74°
2026-04-20 17:44 43.69419 11.02403 3381 ft 210 kts 58°
2026-04-20 17:44 43.70245 11.03934 3151 ft 187 kts 44°
2026-04-20 17:45 43.71073 11.05209 2892 ft 169 kts 45°
2026-04-20 17:45 43.71828 11.06370 2674 ft 156 kts 45°
2026-04-20 17:45 43.72538 11.07461 2476 ft 151 kts 45°
2026-04-20 17:45 43.73242 11.08541 2290 ft 151 kts 45°
2026-04-20 17:46 43.73936 11.09610 2086 ft 147 kts 47°
2026-04-20 17:46 43.74620 11.10662 1872 ft 147 kts 47°
2026-04-20 17:46 43.75316 11.11732 1687 ft 150 kts 46°
2026-04-20 17:46 43.76007 11.12798 1480 ft 147 kts 46°
2026-04-20 17:47 43.76676 11.13828 1281 ft 144 kts 46°
2026-04-20 17:47 43.77342 11.14855 1081 ft 143 kts 45°
2026-04-20 17:47 43.78013 11.15889 889 ft 144 kts 45°
2026-04-20 17:47 43.78691 11.16934 707 ft 145 kts 47°
2026-04-20 17:48 43.79362 11.17969 519 ft 144 kts 44°
2026-04-20 17:48 43.80020 11.18993 275 ft 141 kts 44°
2026-04-20 17:48 43.80670 11.20013 141 ft 141 kts 39°
2026-04-20 17:48 43.81202 11.20815 141 ft 59 kts 47°
2026-04-20 17:49 43.81270 11.20945 146 ft 8 kts 84°
2026-04-20 17:49 43.81264 11.21072 148 ft 11 kts 95°
2026-04-20 17:49 43.81259 11.21181 149 ft 12 kts 88°
2026-04-20 17:49 43.81301 11.21278 150 ft 15 kts 49°
2026-04-20 17:50 43.81393 11.21378 151 ft 18 kts
2026-04-20 17:50 43.81510 11.21282 147 ft 22 kts 263°
2026-04-20 17:50 43.81384 11.21094 147 ft 33 kts 227°
2026-04-20 17:50 43.81225 11.20851 143 ft 35 kts 228°
2026-04-20 17:51 43.81060 11.20595 135 ft 36 kts 229°
2026-04-20 17:51 43.80892 11.20341 134 ft 33 kts 229°
2026-04-20 17:51 43.80760 11.20134 135 ft 24 kts 228°
2026-04-20 17:51 43.80626 11.20022 131 ft 23 kts 194°
2026-04-20 17:52 43.80501 11.19977 132 ft 17 kts 192°
2026-04-20 17:52 43.80402 11.19926 129 ft 12 kts 227°
2026-04-20 17:52 43.80362 11.19887 127 ft 4 kts 209°
2026-04-20 17:52 43.80355 11.19882 128 ft 0 kts 208°